Temp
-9 -9 -9 -10 -10 -10 -10 -10 -11 -11 -11 -11 -11 -12 -12 -12 -12 -12 -13 -13 -13 -13 -14 -14 -14 -14 -14 -14 -14 -14 -14 -14 -14 -14 -14 -14 -14 -14 -14 -14 -14 -14 -13 -13 -14 -14 -14 -14 -14 -14 -14 -14 -13 -13 -13 -13 -12 -12 -11 -11 -10 -10 -10 -10 -10 -10 -10 -10 -9
-9 -9 -9 -10 -10 -10 -10 -10 -11 -11 -11 -11 -12 -12 -12 -13 -13 -13 -13 -13 -14 -14 -14 -14 -14 -14 -14 -14 -14 -15 -14 -14 -14 -14 -14 -14 -14 -14 -14 -14 -14 -14 -14 -14 -14 -14 -14 -14 -14 -14 -14 -14 -13 -13 -12 -12 -12 -11 -11 -10 -10 -10 -10 -10 -10 -10 -10 -10 -9
-9 -9 -9 -10 -10 -10 -10 -10 -11 -11 -11 -12 -12 -12 -13 -13 -13 -13 -14 -14 -14 -14 -14 -15 -15 -15 -15 -15 -14 -14 -15 -15 -15 -15 -15 -15 -14 -14 -14 -14 -14 -14 -14 -14 -14 -14 -14 -14 -14 -14 -14 -13 -13 -12 -12 -12 -11 -11 -11 -11 -10 -10 -10 -10 -10 -10 -10 -10 -9
-9 -9 -10 -10 -10 -10 -11 -11 -11 -11 -12 -12 -12 -13 -13 -13 -14 -14 -14 -14 -14 -15 -15 -15 -15 -15 -15 -14 -14 -14 -15 -15 -15 -15 -15 -15 -15 -14 -14 -14 -14 -14 -14 -14 -14 -14 -14 -14 -14 -14 -14 -13 -13 -12 -12 -11 -11 -11 -11 -11 -11 -10 -10 -10 -10 -10 -10 -10 -9
-9 -10 -10 -10 -10 -11 -11 -11 -11 -12 -12 -13 -13 -13 -13 -14 -14 -14 -14 -15 -15 -15 -15 -15 -15 -15 -15 -15 -15 -15 -15 -15 -15 -15 -15 -15 -15 -15 -14 -14 -14 -14 -14 -14 -14 -14 -14 -14 -14 -14 -13 -13 -12 -12 -12 -11 -11 -11 -11 -11 -11 -10 -10 -10 -10 -10 -10 -10 -9
-10 -10 -10 -10 -11 -11 -11 -12 -12 -12 -13 -13 -13 -13 -14 -14 -14 -15 -15 -15 -15 -15 -15 -15 -15 -15 -15 -15 -15 -15 -15 -15 -15 -15 -15 -15 -15 -15 -14 -14 -14 -14 -14 -14 -14 -14 -14 -14 -14 -14 -13 -13 -13 -12 -12 -11 -11 -11 -11 -11 -10 -10 -10 -10 -10 -10 -10 -10 -9
-10 -10 -11 -11 -11 -11 -12 -12 -12 -13 -13 -13 -13 -14 -14 -14 -15 -15 -15 -15 -15 -15 -15 -15 -15 -15 -15 -15 -15 -15 -15 -15 -15 -15 -15 -15 -15 -15 -14 -14 -14 -14 -14 -14 -14 -13 -13 -14 -14 -13 -13 -13 -12 -12 -11 -11 -11 -11 -11 -11 -10 -10 -10 -10 -10 -10 -9 -9 -9
-11 -11 -11 -11 -12 -12 -12 -12 -13 -13 -13 -14 -14 -14 -15 -15 -15 -15 -15 -15 -15 -15 -15 -15 -15 -15 -15 -15 -15 -15 -15 -15 -15 -15 -15 -15 -15 -15 -15 -14 -14 -14 -14 -13 -13 -13 -13 -13 -13 -13 -12 -12 -12 -11 -11 -11 -11 -11 -11 -11 -10 -10 -10 -10 -9 -9 -9 -9 -8
-11 -11 -11 -12 -12 -12 -13 -13 -13 -13 -14 -14 -15 -15 -15 -15 -15 -16 -15 -15 -15 -15 -15 -15 -15 -15 -15 -16 -15 -15 -15 -15 -15 -15 -15 -15 -15 -15 -15 -14 -14 -14 -13 -13 -13 -13 -12 -13 -12 -12 -12 -12 -11 -11 -11 -11 -11 -11 -11 -11 -11 -10 -10 -10 -9 -9 -9 -8 -8
-11 -11 -12 -12 -12 -13 -13 -13 -13 -14 -14 -15 -15 -15 -15 -15 -16 -16 -15 -15 -15 -15 -15 -15 -15 -16 -16 -16 -15 -15 -15 -15 -15 -15 -15 -15 -15 -15 -15 -14 -14 -13 -13 -12 -12 -12 -12 -12 -12 -12 -11 -11 -11 -11 -10 -10 -11 -11 -11 -11 -11 -11 -10 -9 -9 -9 -8 -8 -8
-11 -12 -12 -12 -13 -13 -13 -13 -14 -14 -15 -15 -15 -15 -15 -16 -16 -16 -15 -15 -15 -15 -15 -15 -16 -16 -15 -15 -15 -15 -15 -15 -15 -15 -15 -15 -15 -14 -14 -14 -13 -13 -12 -12 -12 -12 -12 -11 -11 -11 -11 -11 -10 -10 -10 -11 -11 -11 -11 -11 -11 -10 -10 -9 -8 -8 -8 -8 -8
-11 -12 -12 -13 -13 -13 -13 -14 -14 -15 -15 -15 -15 -15 -16 -16 -16 -16 -15 -15 -16 -15 -15 -15 -15 -15 -15 -15 -15 -15 -15 -15 -15 -15 -15 -15 -15 -14 -14 -13 -13 -13 -12 -12 -11 -11 -11 -11 -11 -11 -10 -10 -10 -10 -11 -11 -11 -11 -11 -10 -10 -10 -9 -8 -8 -8 -8 -8 -8
-12 -12 -12 -13 -13 -13 -14 -14 -15 -15 -15 -16 -16 -16 -16 -16 -16 -16 -15 -15 -15 -15 -15 -15 -15 -15 -15 -15 -15 -15 -15 -15 -15 -15 -15 -15 -14 -14 -14 -13 -13 -12 -12 -11 -11 -11 -11 -11 -10 -10 -10 -10 -10 -11 -11 -11 -11 -11 -10 -10 -9 -9 -8 -8 -8 -8 -8 -8 -8
-12 -12 -13 -13 -14 -14 -15 -15 -15 -15 -16 -16 -16 -16 -16 -16 -15 -15 -15 -15 -15 -15 -15 -15 -15 -15 -15 -15 -15 -15 -15 -15 -15 -15 -15 -14 -14 -14 -13 -13 -12 -12 -11 -11 -10 -10 -11 -11 -10 -10 -10 -11 -11 -11 -11 -11 -11 -10 -10 -9 -8 -8 -8 -8 -8 -8 -8 -8 -8
-12 -13 -13 -14 -14 -15 -15 -15 -15 -16 -16 -16 -16 -16 -15 -15 -15 -15 -15 -15 -15 -15 -15 -15 -15 -15 -14 -14 -14 -14 -14 -15 -15 -14 -14 -14 -14 -13 -13 -13 -12 -12 -11 -10 -10 -10 -10 -11 -11 -11 -11 -11 -11 -11 -10 -10 -10 -9 -9 -8 -8 -8 -8 -8 -8 -8 -8 -8 -8
-13 -13 -14 -14 -14 -15 -15 -15 -16 -16 -16 -16 -16 -15 -15 -15 -15 -15 -15 -15 -15 -15 -15 -15 -14 -14 -14 -14 -14 -14 -14 -14 -14 -14 -14 -14 -13 -13 -13 -12 -12 -11 -11 -10 -10 -10 -10 -11 -11 -11 -11 -11 -11 -10 -10 -9 -9 -9 -8 -8 -8 -8 -8 -8 -8 -8 -8 -8 -8
-13 -13 -14 -14 -15 -15 -15 -15 -16 -16 -16 -16 -15 -15 -15 -15 -15 -15 -15 -15 -15 -15 -14 -14 -14 -14 -14 -14 -14 -14 -14 -14 -14 -14 -14 -13 -13 -13 -12 -12 -11 -11 -11 -10 -10 -10 -11 -11 -11 -11 -11 -11 -10 -10 -9 -9 -8 -8 -8 -8 -8 -8 -8 -8 -8 -8 -8 -9 -9
-13 -14 -14 -14 -15 -15 -15 -15 -16 -16 -16 -16 -15 -15 -15 -15 -15 -14 -14 -14 -14 -14 -14 -14 -14 -14 -14 -14 -14 -14 -14 -14 -14 -14 -13 -13 -13 -12 -12 -11 -11 -11 -11 -11 -11 -11 -11 -11 -11 -11 -10 -10 -9 -9 -9 -8 -8 -8 -8 -8 -8 -8 -8 -8 -8 -9 -9 -9 -9
-13 -14 -14 -15 -15 -15 -15 -15 -16 -16 -16 -15 -15 -15 -15 -14 -14 -14 -14 -14 -14 -14 -14 -14 -14 -14 -14 -14 -14 -14 -14 -13 -13 -13 -13 -13 -12 -12 -11 -11 -11 -10 -11 -11 -11 -11 -11 -10 -10 -9 -9 -9 -8 -8 -8 -8 -8 -8 -8 -8 -8 -9 -9 -9 -9 -9 -9 -8 -8
-13 -14 -14 -15 -15 -15 -15 -15 -15 -15 -15 -15 -15 -15 -14 -14 -14 -14 -14 -13 -14 -14 -14 -14 -14 -14 -14 -14 -13 -13 -13 -13 -13 -13 -13 -12 -12 -11 -11 -11 -10 -10 -11 -11 -10 -10 -10 -9 -9 -8 -8 -8 -8 -8 -8 -8 -8 -8 -8 -9 -9 -9 -9 -9 -9 -9 -9 -9 -9
-13 -14 -14 -15 -15 -15 -15 -15 -15 -15 -15 -15 -15 -14 -14 -14 -14 -13 -13 -13 -13 -13 -14 -14 -14 -14 -14 -14 -13 -13 -13 -13 -13 -12 -12 -12 -12 -11 -11 -11 -11 -11 -10 -10 -9 -8 -8 -9 -8 -8 -8 -8 -8 -8 -8 -8 -8 -8 -9 -9 -9 -9 -9 -9 -9 -9 -9 -9 -9
-14 -14 -15 -15 -15 -15 -15 -15 -15 -15 -15 -15 -14 -14 -14 -13 -13 -13 -13 -13 -13 -13 -14 -14 -14 -14 -13 -13 -13 -13 -12 -12 -12 -12 -12 -12 -12 -11 -11 -11 -11 -11 -10 -8 -8 -8 -8 -8 -8 -8 -8 -8 -8 -8 -8 -8 -8 -9 -9 -9 -9 -9 -9 -9 -9 -9 -9 -9 -9
-13 -14 -14 -15 -15 -15 -15 -15 -15 -15 -15 -15 -14 -14 -13 -13 -13 -13 -13 -13 -13 -13 -13 -14 -14 -13 -13 -13 -13 -13 -12 -12 -12 -12 -12 -11 -11 -11 -10 -11 -11 -11 -9 -8 -7 -8 -8 -8 -8 -8 -8 -8 -8 -9 -9 -9 -9 -9 -9 -9 -9 -9 -9 -9 -9 -9 -9 -9 -9
-13 -14 -14 -15 -15 -15 -15 -15 -15 -15 -15 -15 -14 -14 -13 -13 -13 -13 -13 -13 -13 -13 -13 -14 -13 -13 -13 -13 -13 -12 -12 -12 -12 -12 -11 -11 -11 -10 -10 -11 -11 -10 -9 -8 -8 -8 -8 -8 -8 -9 -9 -9 -9 -9 -9 -9 -9 -9 -9 -9 -9 -9 -9 -9 -9 -9 -9 -9 -9
-13 -14 -14 -15 -15 -15 -15 -15 -15 -15 -15 -14 -14 -14 -13 -13 -13 -13 -13 -13 -13 -13 -13 -13 -13 -13 -13 -13 -13 -12 -12 -12 -12 -12 -11 -11 -10 -10 -10 -11 -11 -10 -8 -8 -8 -9 -9 -9 -9 -9 -9 -9 -9 -9 -9 -9 -9 -9 -9 -9 -9 -9 -9 -9 -9 -9 -9 -9 -9
-13 -14 -14 -14 -15 -15 -15 -15 -15 -15 -15 -14 -14 -13 -13 -13 -13 -13 -13 -13 -13 -13 -13 -13 -13 -13 -13 -13 -13 -12 -12 -12 -12 -12 -11 -11 -10 -10 -10 -10 -10 -10 -8 -8 -9 -9 -9 -10 -10 -10 -10 -10 -9 -9 -9 -9 -9 -9 -9 -9 -9 -9 -9 -9 -9 -9 -9 -9 -9
-14 -14 -14 -15 -15 -15 -15 -15 -15 -15 -14 -14 -13 -13 -13 -13 -13 -13 -13 -13 -13 -13 -13 -13 -13 -13 -14 -13 -13 -12 -12 -12 -12 -12 -11 -11 -11 -10 -10 -10 -10 -9 -9 -9 -9 -9 -9 -10 -10 -10 -10 -9 -9 -9 -9 -9 -9 -9 -9 -9 -9 -9 -9 -9 -9 -9 -9 -9 -9
-14 -14 -14 -15 -15 -15 -15 -15 -15 -14 -14 -14 -13 -13 -13 -13 -13 -13 -13 -13 -13 -13 -13 -13 -13 -14 -14 -13 -13 -12 -12 -12 -12 -12 -11 -11 -11 -10 -10 -10 -10 -10 -9 -9 -9 -9 -9 -10 -10 -10 -10 -9 -9 -9 -9 -9 -9 -9 -9 -9 -9 -9 -9 -9 -10 -10 -10 -10 -9
-14 -14 -15 -15 -15 -15 -15 -15 -15 -14 -14 -13 -13 -13 -13 -13 -13 -13 -13 -13 -13 -13 -13 -13 -13 -14 -14 -13 -13 -13 -12 -12 -12 -12 -11 -11 -11 -10 -10 -10 -10 -10 -10 -10 -10 -10 -10 -10 -10 -10 -9 -9 -9 -9 -9 -9 -9 -9 -9 -9 -9 -9 -9 -10 -10 -10 -10 -10 -10
-14 -14 -15 -15 -15 -15 -15 -15 -15 -15 -14 -13 -13 -13 -13 -13 -13 -13 -13 -13 -13 -13 -13 -13 -13 -13 -13 -13 -13 -13 -12 -12 -12 -12 -11 -11 -11 -11 -10 -10 -10 -10 -10 -10 -10 -10 -10 -10 -10 -10 -10 -9 -9 -9 -9 -9 -9 -9 -9 -9 -10 -10 -10 -10 -10 -10 -10 -10 -10
-14 -15 -15 -15 -15 -15 -15 -15 -15 -14 -14 -13 -13 -13 -13 -13 -13 -13 -13 -13 -13 -13 -14 -13 -13 -13 -13 -13 -13 -13 -12 -12 -12 -12 -11 -11 -11 -11 -11 -10 -10 -10 -10 -10 -10 -10 -10 -10 -10 -10 -10 -10 -10 -10 -10 -10 -10 -10 -10 -10 -10 -10 -10 -10 -10 -10 -10 -10 -10
-14 -15 -15 -15 -15 -15 -15 -15 -15 -14 -14 -13 -13 -13 -13 -13 -13 -13 -13 -13 -13 -14 -14 -13 -13 -13 -13 -13 -13 -13 -12 -12 -12 -12 -11 -11 -11 -11 -11 -10 -10 -10 -10 -10 -10 -10 -10 -10 -10 -10 -10 -10 -10 -10 -10 -10 -10 -10 -10 -10 -10 -10 -10 -10 -10 -10 -10 -10 -10
-14 -14 -15 -15 -15 -15 -15 -15 -14 -14 -14 -13 -13 -13 -13 -13 -13 -13 -13 -13 -14 -14 -14 -13 -13 -13 -13 -13 -13 -12 -12 -12 -12 -12 -11 -11 -11 -11 -11 -10 -10 -10 -10 -11 -11 -10 -10 -10 -10 -10 -10 -10 -10 -10 -10 -10 -10 -10 -10 -10 -10 -10 -10 -10 -10 -10 -10 -10 -10
-14 -14 -14 -14 -15 -15 -15 -14 -14 -14 -14 -13 -13 -13 -13 -13 -13 -13 -13 -13 -14 -14 -13 -13 -13 -13 -12 -12 -12 -12 -12 -12 -12 -12 -11 -11 -11 -11 -11 -11 -10 -10 -10 -11 -11 -11 -10 -10 -10 -10 -10 -10 -10 -10 -10 -10 -10 -10 -10 -10 -10 -10 -10 -10 -10 -10 -10 -10 -10
-14 -14 -14 -14 -14 -14 -14 -14 -14 -14 -14 -13 -13 -13 -13 -13 -13 -13 -13 -13 -13 -13 -13 -13 -13 -12 -12 -12 -12 -12 -12 -12 -11 -11 -11 -11 -11 -11 -11 -11 -11 -10 -10 -11 -11 -11 -11 -11 -11 -11 -10 -10 -10 -10 -10 -10 -10 -10 -10 -10 -10 -10 -10 -10 -10 -10 -10 -10 -10
-14 -14 -14 -14 -14 -14 -14 -14 -14 -14 -13 -13 -13 -13 -13 -13 -13 -13 -13 -13 -13 -13 -13 -13 -12 -12 -12 -12 -12 -12 -12 -11 -11 -11 -11 -11 -11 -11 -11 -11 -11 -11 -10 -10 -11 -11 -11 -11 -11 -11 -11 -11 -11 -11 -11 -10 -10 -10 -10 -10 -10 -10 -10 -10 -10 -10 -11 -11 -11
-14 -14 -14 -14 -14 -14 -14 -14 -14 -13 -13 -13 -13 -13 -13 -13 -13 -13 -13 -13 -13 -13 -13 -13 -12 -12 -12 -12 -12 -12 -11 -11 -11 -11 -11 -11 -11 -11 -11 -11 -11 -11 -11 -10 -11 -11 -11 -11 -11 -11 -11 -11 -11 -11 -11 -11 -11 -11 -11 -10 -11 -11 -11 -11 -11 -11 -11 -11 -11
-14 -14 -14 -14 -14 -14 -14 -14 -14 -13 -13 -13 -13 -13 -13 -13 -13 -13 -13 -13 -13 -13 -13 -12 -12 -12 -12 -12 -12 -11 -11 -11 -11 -11 -11 -11 -12 -12 -12 -11 -11 -11 -11 -11 -11 -11 -11 -11 -11 -11 -11 -11 -11 -11 -11 -11 -11 -11 -11 -11 -11 -11 -11 -11 -11 -11 -11 -11 -12
-14 -14 -14 -14 -14 -14 -14 -14 -13 -13 -13 -13 -13 -13 -13 -12 -12 -12 -13 -13 -13 -13 -12 -12 -12 -12 -12 -12 -12 -11 -11 -11 -11 -11 -11 -11 -12 -12 -12 -12 -12 -11 -11 -11 -11 -11 -11 -11 -11 -12 -12 -12 -12 -12 -12 -12 -12 -12 -11 -11 -11 -11 -11 -11 -12 -12 -12 -12 -12
-14 -14 -14 -14 -14 -14 -14 -14 -13 -13 -13 -13 -13 -13 -13 -12 -12 -12 -12 -12 -12 -12 -12 -12 -12 -12 -12 -12 -12 -11 -11 -11 -11 -11 -11 -11 -11 -12 -12 -12 -12 -12 -12 -11 -11 -11 -11 -11 -11 -12 -12 -12 -12 -12 -12 -12 -12 -12 -12 -12 -12 -12 -12 -12 -12 -12 -12 -12 -12
-14 -14 -14 -14 -14 -14 -14 -13 -13 -13 -13 -13 -13 -13 -13 -12 -12 -12 -12 -12 -12 -12 -12 -12 -12 -12 -12 -12 -12 -11 -11 -11 -11 -11 -11 -11 -11 -11 -12 -12 -12 -12 -12 -12 -11 -11 -11 -11 -11 -11 -12 -12 -12 -12 -12 -12 -12 -12 -12 -12 -12 -12 -12 -13 -13 -12 -12 -12 -12
Height
1538 1536 1534 1532 1530 1528 1526 1524 1523 1521 1519 1517 1514 1512 1510 1508 1506 1504 1503 1501 1499 1498 1496 1494 1493 1491 1489 1488 1487 1485 1484 1482 1480 1479 1477 1476 1474 1473 1471 1470 1468 1467 1465 1464 1462 1461 1460 1459 1457 1456 1455 1454 1453 1452 1451 1450 1449 1448 1448 1447 1446 1445 1444 1443 1443 1442 1442 1441 1440
1537 1535 1533 1532 1530 1527 1525 1523 1522 1520 1518 1516 1514 1512 1510 1507 1506 1504 1502 1500 1499 1497 1495 1494 1492 1490 1489 1487 1486 1485 1483 1481 1479 1478 1476 1475 1473 1472 1470 1468 1467 1466 1464 1462 1461 1460 1459 1457 1456 1455 1454 1452 1451 1450 1449 1449 1448 1447 1447 1446 1445 1444 1443 1442 1442 1441 1440 1439 1438
1536 1534 1532 1530 1528 1526 1524 1522 1520 1518 1516 1515 1513 1511 1509 1507 1505 1503 1501 1500 1498 1497 1495 1493 1491 1490 1488 1487 1486 1484 1482 1481 1478 1477 1475 1473 1472 1470 1469 1467 1465 1464 1463 1461 1460 1459 1457 1456 1455 1454 1452 1451 1450 1449 1448 1447 1447 1446 1445 1445 1444 1443 1442 1442 1441 1440 1439 1437 1437
1535 1533 1531 1529 1527 1525 1523 1521 1519 1517 1515 1513 1512 1510 1508 1506 1505 1503 1501 1499 1497 1496 1494 1492 1491 1489 1488 1487 1485 1484 1482 1480 1478 1476 1474 1472 1470 1469 1467 1466 1464 1462 1461 1460 1458 1457 1456 1455 1454 1452 1451 1450 1448 1447 1447 1446 1446 1445 1444 1443 1443 1442 1441 1440 1439 1438 1437 1436 1435
1534 1532 1530 1528 1526 1524 1522 1520 1518 1516 1514 1513 1511 1509 1507 1506 1504 1502 1500 1499 1497 1495 1494 1492 1491 1489 1488 1486 1484 1482 1480 1478 1477 1475 1472 1471 1469 1467 1466 1464 1462 1461 1460 1458 1457 1456 1455 1453 1452 1451 1449 1448 1447 1446 1445 1445 1444 1443 1443 1442 1442 1441 1440 1439 1437 1437 1436 1435 1434
1532 1531 1529 1527 1525 1523 1521 1519 1517 1516 1514 1512 1510 1508 1507 1505 1503 1502 1500 1498 1497 1495 1493 1492 1491 1489 1487 1485 1483 1481 1479 1477 1475 1473 1471 1469 1467 1466 1464 1462 1461 1460 1458 1457 1456 1454 1453 1452 1451 1449 1448 1447 1446 1445 1444 1444 1443 1442 1442 1441 1440 1439 1438 1437 1436 1435 1434 1433 1433
1532 1530 1528 1526 1524 1522 1520 1518 1517 1515 1513 1511 1509 1507 1506 1504 1502 1501 1500 1498 1496 1494 1493 1492 1490 1488 1486 1484 1482 1479 1477 1475 1473 1472 1470 1468 1466 1464 1463 1461 1459 1458 1457 1455 1454 1453 1452 1450 1449 1448 1447 1446 1445 1444 1443 1443 1442 1441 1440 1439 1438 1437 1437 1436 1435 1434 1433 1432 1432
1531 1529 1527 1525 1523 1521 1519 1517 1516 1514 1512 1510 1509 1507 1505 1504 1502 1501 1499 1497 1496 1494 1493 1491 1490 1487 1485 1483 1481 1478 1476 1474 1472 1470 1468 1467 1465 1463 1461 1459 1458 1457 1455 1454 1452 1451 1450 1449 1447 1446 1445 1444 1443 1442 1442 1441 1441 1440 1438 1437 1436 1435 1434 1434 1433 1432 1432 1431 1431
1530 1528 1526 1524 1522 1520 1518 1517 1515 1513 1511 1510 1508 1507 1505 1504 1502 1501 1499 1497 1496 1494 1493 1491 1489 1487 1484 1482 1480 1477 1475 1473 1471 1469 1467 1465 1463 1462 1460 1458 1456 1455 1453 1452 1451 1450 1448 1447 1446 1445 1443 1443 1442 1441 1440 1439 1439 1438 1437 1435 1434 1433 1432 1432 1432 1431 1431 1430 1430
1529 1527 1525 1523 1521 1520 1518 1516 1514 1512 1511 1509 1508 1507 1505 1504 1502 1501 1499 1497 1496 1494 1492 1490 1488 1486 1483 1481 1479 1477 1474 1472 1470 1468 1466 1464 1462 1460 1458 1457 1455 1453 1452 1451 1449 1448 1446 1445 1444 1443 1442 1441 1440 1439 1438 1438 1437 1436 1434 1433 1432 1431 1430 1430 1430 1430 1430 1429 1429
1528 1526 1524 1522 1521 1519 1517 1515 1514 1512 1511 1509 1508 1506 1505 1504 1502 1500 1499 1497 1496 1493 1492 1490 1487 1485 1482 1480 1478 1476 1474 1472 1470 1467 1465 1463 1461 1459 1457 1455 1453 1452 1450 1449 1447 1446 1444 1443 1442 1441 1440 1439 1439 1438 1437 1436 1434 1433 1432 1431 1430 1429 1429 1428 1429 1429 1429 1428 1428
1527 1526 1524 1522 1520 1519 1517 1515 1513 1512 1511 1509 1508 1506 1505 1503 1502 1500 1499 1497 1495 1493 1491 1489 1487 1484 1482 1480 1477 1475 1473 1471 1469 1467 1464 1462 1460 1458 1456 1454 1452 1450 1448 1447 1446 1444 1443 1441 1440 1439 1438 1438 1437 1436 1435 1433 1432 1431 1430 1429 1429 1428 1428 1428 1428 1428 1428 1428 1427
1527 1525 1523 1522 1520 1518 1517 1515 1513 1512 1511 1509 1508 1507 1505 1503 1502 1500 1498 1497 1494 1492 1490 1488 1486 1484 1482 1479 1477 1475 1472 1470 1468 1466 1463 1461 1459 1457 1455 1452 1451 1448 1447 1445 1444 1442 1441 1440 1438 1437 1437 1436 1435 1434 1432 1431 1430 1429 1428 1428 1427 1427 1427 1427 1427 1428 1428 1427 1427
1527 1525 1523 1522 1520 1518 1517 1515 1514 1512 1511 1509 1508 1507 1505 1503 1502 1500 1498 1496 1494 1492 1490 1488 1486 1484 1482 1479 1477 1474 1472 1470 1467 1465 1462 1460 1458 1456 1453 1451 1449 1447 1444 1443 1442 1440 1439 1438 1437 1436 1435 1433 1432 1431 1430 1429 1428 1427 1427 1427 1427 1427 1427 1427 1427 1427 1427 1427 1427
1527 1525 1523 1522 1520 1518 1517 1515 1514 1512 1511 1510 1508 1507 1505 1503 1502 1500 1498 1496 1494 1492 1490 1487 1485 1483 1481 1479 1477 1474 1472 1469 1467 1464 1462 1459 1457 1455 1452 1450 1447 1445 1442 1441 1439 1438 1437 1436 1435 1434 1433 1431 1429 1428 1427 1427 1427 1427 1427 1427 1427 1427 1427 1427 1427 1427 1427 1427 1426
1526 1525 1523 1522 1520 1518 1517 1516 1514 1513 1512 1510 1508 1507 1505 1503 1502 1500 1498 1496 1494 1492 1490 1487 1485 1483 1481 1478 1476 1473 1471 1468 1466 1463 1461 1458 1456 1453 1451 1448 1446 1443 1441 1439 1437 1436 1435 1434 1433 1431 1429 1427 1426 1425 1425 1425 1426 1426 1426 1426 1427 1427 1427 1427 1427 1427 1427 1427 1427
1526 1525 1523 1522 1520 1519 1517 1516 1515 1513 1512 1510 1508 1507 1505 1504 1502 1500 1498 1496 1494 1492 1490 1487 1485 1483 1480 1478 1476 1473 1470 1468 1465 1463 1460 1458 1455 1452 1450 1447 1445 1442 1440 1438 1436 1434 1432 1431 1429 1427 1426 1425 1424 1424 1424 1425 1425 1426 1426 1427 1427 1427 1427 1427 1427 1427 1428 1428 1427
1526 1525 1523 1522 1520 1519 1517 1516 1515 1513 1512 1510 1509 1507 1505 1504 1502 1500 1498 1497 1494 1492 1490 1487 1485 1482 1480 1477 1475 1473 1470 1467 1465 1462 1460 1457 1455 1452 1449 1447 1444 1441 1439 1436 1433 1430 1427 1425 1424 1423 1423 1423 1423 1423 1424 1425 1425 1426 1427 1427 1427 1427 1427 1428 1428 1428 1428 1427 1426
1526 1525 1523 1522 1520 1519 1518 1517 1515 1514 1512 1511 1509 1507 1506 1504 1502 1500 1498 1497 1494 1492 1490 1487 1485 1482 1480 1477 1475 1472 1470 1467 1465 1462 1460 1457 1455 1452 1449 1446 1443 1439 1436 1432 1428 1425 1422 1421 1421 1421 1422 1422 1423 1423 1424 1425 1426 1427 1427 1428 1428 1429 1429 1429 1429 1428 1428 1427 1426
1527 1525 1523 1522 1521 1519 1518 1517 1516 1514 1512 1511 1509 1507 1506 1504 1502 1500 1498 1497 1494 1492 1490 1487 1485 1482 1479 1477 1475 1472 1470 1467 1465 1462 1460 1457 1454 1452 1449 1446 1442 1437 1431 1425 1422 1421 1420 1420 1420 1421 1422 1422 1423 1424 1425 1426 1427 1427 1429 1430 1429 1429 1429 1429 1429 1428 1428 1427 1426
1527 1525 1524 1522 1521 1520 1519 1517 1516 1514 1513 1511 1509 1507 1506 1504 1502 1501 1499 1497 1494 1492 1490 1487 1485 1482 1479 1477 1474 1472 1470 1467 1465 1462 1460 1457 1454 1452 1449 1446 1441 1433 1426 1421 1420 1420 1420 1420 1421 1421 1422 1423 1424 1425 1426 1427 1428 1429 1430 1430 1429 1430 1430 1430 1429 1429 1428 1427 1427
1527 1526 1524 1523 1522 1521 1519 1518 1516 1515 1513 1511 1509 1508 1506 1504 1502 1501 1499 1497 1494 1492 1490 1487 1485 1482 1480 1477 1475 1472 1470 1468 1466 1463 1461 1458 1454 1452 1449 1445 1438 1431 1424 1421 1421 1421 1421 1421 1422 1423 1424 1425 1426 1426 1427 1428 1429 1429 1429 1430 1430 1431 1431 1430 1430 1429 1429 1428 1427
1527 1526 1525 1523 1522 1521 1520 1518 1517 1515 1513 1511 1510 1508 1506 1504 1502 1501 1499 1497 1494 1492 1489 1487 1485 1482 1480 1478 1475 1473 1471 1468 1466 1464 1461 1458 1455 1452 1448 1443 1437 1431 1427 1426 1424 1423 1423 1424 1426 1426 1426 1426 1426 1427 1427 1428 1429 1429 1430 1431 1431 1431 1431 1431 1430 1430 1429 1428 1427
1528 1526 1525 1524 1522 1521 1520 1518 1517 1515 1513 1511 1510 1508 1506 1504 1503 1501 1499 1497 1494 1492 1489 1487 1485 1483 1481 1478 1476 1474 1472 1469 1467 1464 1462 1459 1456 1452 1448 1443 1437 1434 1434 1434 1430 1427 1427 1427 1427 1427 1426 1426 1427 1427 1428 1429 1430 1431 1432 1432 1432 1432 1432 1432 1431 1430 1429 1428 1428
1528 1527 1525 1524 1523 1521 1520 1518 1517 1515 1513 1512 1510 1508 1507 1505 1503 1501 1499 1497 1494 1492 1489 1487 1485 1483 1481 1479 1477 1475 1472 1470 1468 1466 1463 1460 1457 1454 1449 1444 1439 1439 1441 1440 1436 1432 1430 1429 1428 1428 1428 1428 1429 1429 1430 1431 1432 1432 1433 1433 1433 1433 1432 1432 1431 1430 1430 1429 1428
1528 1527 1526 1524 1523 1522 1520 1518 1517 1515 1513 1512 1510 1508 1507 1505 1503 1501 1499 1497 1494 1492 1489 1487 1485 1483 1482 1480 1477 1475 1473 1471 1469 1467 1464 1462 1459 1455 1451 1447 1442 1443 1445 1443 1440 1437 1435 1433 1432 1431 1431 1431 1431 1432 1432 1432 1433 1434 1434 1434 1433 1433 1432 1432 1431 1431 1430 1430 1429
1529 1527 1526 1524 1523 1522 1520 1518 1517 1515 1513 1512 1510 1508 1507 1505 1503 1502 1499 1497 1494 1492 1489 1487 1485 1484 1482 1480 1478 1476 1474 1472 1470 1468 1466 1463 1461 1457 1454 1450 1447 1447 1448 1446 1443 1441 1440 1438 1437 1436 1435 1434 1434 1434 1434 1435 1435 1435 1435 1434 1434 1433 1432 1432 1432 1431 1431 1430 1429
1529 1527 1526 1525 1523 1522 1520 1518 1517 1515 1513 1512 1510 1509 1507 1506 1504 1502 1500 1497 1494 1492 1489 1487 1486 1484 1483 1481 1479 1477 1475 1473 1472 1470 1467 1465 1463 1460 1456 1453 1451 1451 1451 1448 1446 1445 1443 1442 1441 1440 1439 1438 1437 1437 1437 1437 1436 1436 1436 1435 1434 1434 1433 1433 1432 1432 1431 1430 1430
1529 1528 1526 1525 1523 1522 1520 1518 1517 1515 1513 1512 1511 1509 1508 1506 1504 1502 1500 1497 1495 1492 1490 1488 1487 1485 1483 1482 1480 1478 1477 1475 1473 1471 1469 1467 1464 1462 1458 1456 1454 1454 1453 1450 1448 1447 1446 1446 1445 1443 1442 1442 1441 1440 1439 1439 1438 1437 1437 1436 1436 1435 1434 1434 1433 1432 1431 1431 1430
1530 1528 1527 1525 1523 1522 1520 1518 1517 1516 1514 1512 1511 1510 1508 1507 1505 1502 1500 1497 1495 1493 1492 1490 1487 1486 1484 1482 1481 1479 1478 1476 1474 1472 1470 1468 1466 1463 1461 1458 1457 1457 1457 1453 1452 1450 1449 1448 1447 1447 1445 1444 1443 1442 1442 1441 1440 1439 1438 1438 1437 1437 1436 1435 1434 1432 1432 1431 1430
1530 1528 1527 1525 1523 1522 1520 1519 1517 1516 1514 1513 1512 1510 1509 1507 1505 1503 1500 1498 1496 1494 1492 1490 1488 1486 1485 1483 1482 1481 1479 1477 1476 1474 1472 1470 1468 1466 1463 1461 1459 1459 1459 1456 1454 1453 1452 1450 1449 1448 1447 1446 1445 1444 1443 1442 1442 1441 1440 1439 1438 1437 1437 1435 1434 1433 1432 1432 1431
1530 1529 1527 1525 1524 1522 1521 1519 1518 1516 1515 1513 1512 1511 1509 1507 1505 1503 1501 1499 1497 1495 1493 1490 1488 1487 1485 1483 1482 1481 1480 1478 1477 1475 1473 1472 1469 1467 1465 1463 1461 1462 1461 1458 1456 1455 1453 1452 1451 1450 1449 1448 1447 1446 1445 1444 1443 1442 1441 1440 1439 1438 1437 1436 1435 1434 1433 1432 1432
1531 1529 1527 1526 1524 1523 1521 1520 1518 1517 1516 1514 1513 1511 1509 1508 1506 1504 1502 1499 1497 1496 1493 1491 1489 1487 1486 1484 1483 1482 1481 1480 1478 1477 1475 1473 1471 1469 1467 1464 1463 1463 1463 1460 1458 1457 1455 1454 1453 1452 1451 1449 1448 1447 1446 1445 1444 1443 1442 1441 1440 1439 1438 1437 1436 1435 1433 1432 1433
1531 1529 1528 1526 1525 1523 1522 1520 1519 1517 1516 1515 1513 1512 1510 1508 1506 1504 1502 1500 1498 1497 1495 1493 1491 1489 1488 1486 1485 1483 1482 1481 1479 1478 1476 1474 1472 1470 1468 1466 1465 1466 1465 1462 1459 1458 1457 1456 1454 1453 1452 1451 1449 1448 1447 1446 1445 1444 1443 1442 1441 1440 1439 1438 1437 1436 1434 1433 1433
1531 1530 1528 1527 1525 1524 1522 1521 1520 1518 1517 1515 1514 1512 1510 1508 1507 1505 1503 1501 1499 1497 1496 1494 1492 1491 1489 1487 1486 1485 1483 1482 1480 1479 1477 1476 1474 1472 1469 1467 1466 1467 1467 1464 1461 1459 1458 1457 1456 1455 1453 1452 1450 1449 1448 1447 1446 1445 1444 1443 1442 1441 1440 1439 1438 1437 1435 1434 1434
1532 1530 1529 1527 1526 1525 1523 1522 1520 1519 1517 1516 1514 1512 1511 1509 1507 1506 1504 1502 1500 1498 1496 1495 1493 1492 1490 1489 1487 1486 1484 1483 1482 1480 1479 1477 1475 1473 1471 1469 1467 1467 1468 1466 1463 1461 1459 1458 1457 1456 1455 1453 1452 1451 1449 1448 1447 1446 1445 1444 1443 1442 1441 1440 1438 1437 1436 1434 1434
1532 1531 1529 1528 1527 1525 1524 1522 1521 1519 1517 1516 1514 1513 1511 1509 1508 1506 1504 1502 1500 1499 1497 1496 1494 1493 1491 1490 1488 1487 1486 1484 1483 1481 1480 1478 1476 1474 1472 1470 1468 1467 1468 1467 1464 1462 1461 1460 1459 1458 1457 1455 1454 1452 1451 1450 1449 1448 1447 1445 1444 1443 1442 1440 1439 1438 1436 1435 1434
1532 1531 1530 1528 1527 1526 1524 1522 1521 1519 1518 1517 1515 1513 1512 1510 1508 1507 1505 1503 1501 1500 1498 1497 1495 1494 1492 1491 1490 1489 1487 1486 1484 1483 1481 1479 1477 1476 1474 1471 1469 1468 1468 1468 1466 1463 1462 1461 1460 1460 1458 1457 1456 1455 1453 1452 1451 1450 1448 1447 1445 1444 1442 1441 1440 1438 1437 1436 1435
1533 1532 1530 1529 1527 1526 1524 1523 1521 1520 1518 1517 1515 1514 1512 1511 1509 1507 1506 1504 1502 1501 1499 1497 1496 1495 1494 1492 1491 1490 1488 1487 1486 1484 1482 1481 1479 1477 1475 1473 1471 1470 1469 1468 1467 1465 1464 1462 1462 1461 1460 1459 1457 1456 1455 1453 1452 1451 1449 1448 1446 1445 1443 1442 1440 1439 1437 1436 1435
1533 1532 1531 1529 1528 1526 1525 1523 1522 1520 1519 1517 1516 1514 1512 1511 1510 1508 1507 1505 1503 1502 1500 1498 1497 1496 1495 1493 1492 1491 1489 1488 1487 1485 1484 1482 1481 1479 1477 1475 1473 1472 1471 1470 1469 1467 1466 1465 1463 1462 1460 1459 1458 1457 1456 1454 1452 1451 1449 1448 1446 1445 1443 1442 1441 1439 1438 1437 1435
1533 1532 1531 1529 1528 1526 1525 1523 1522 1520 1519 1518 1516 1515 1513 1512 1510 1509 1507 1505 1504 1502 1501 1499 1498 1497 1495 1494 1493 1492 1490 1489 1488 1486 1485 1483 1482 1480 1478 1476 1474 1473 1473 1472 1471 1470 1469 1467 1466 1464 1462 1460 1459 1457 1456 1454 1452 1451 1449 1448 1446 1445 1443 1442 1441 1439 1438 1437 1435
Wind_Speed
30 30 30 30 30 30 30 30 30 30 30 30 30 30 30 29 29 28 28 27 27 27 27 27 27 28 29 29 30 32 33 35 35 34 31 29 29 28 28 28 27 26 25 24 23 23 23 24 24 24 24 23 23 22 20 18 16 14 13 14 16 17 19 20 21 22 22 20 18
30 30 30 30 30 30 30 30 30 30 30 30 29 29 28 28 27 27 27 26 26 26 26 27 28 29 29 30 30 31 33 35 36 35 33 31 30 29 29 29 28 27 25 24 24 24 24 24 25 25 24 24 23 22 20 16 15 14 15 16 18 19 21 22 23 23 22 20 17
31 31 30 30 30 30 30 30 30 30 30 29 28 27 26 25 25 25 26 25 25 26 27 28 29 29 30 30 30 31 33 34 35 34 33 31 30 29 29 29 28 27 26 25 24 24 24 24 25 25 24 24 23 21 19 16 15 17 18 19 20 21 23 24 24 23 22 20 18
31 31 31 30 30 29 29 29 29 29 29 28 27 25 24 24 24 24 25 25 26 26 27 28 29 29 29 30 30 31 32 33 33 33 32 31 30 29 29 29 29 28 27 25 25 24 24 24 24 24 24 23 22 21 19 18 18 20 21 22 22 23 24 24 24 23 23 21 19
31 31 30 30 29 29 29 29 28 28 27 26 24 23 23 23 24 24 25 26 27 28 28 29 29 29 30 30 31 32 32 32 32 32 31 30 30 29 29 29 29 28 27 26 25 25 24 24 24 24 23 22 21 21 20 20 22 23 24 24 24 24 24 24 24 24 23 21 18
31 30 30 30 29 28 28 27 27 26 25 24 23 23 23 24 25 26 27 28 28 29 29 29 29 29 31 32 32 32 32 32 31 30 30 29 29 29 29 29 28 28 27 26 26 25 24 24 24 23 22 22 22 22 22 22 24 25 26 26 25 24 24 23 23 23 21 19 16
30 30 29 29 28 27 26 25 25 23 23 22 23 24 25 26 27 28 28 28 29 29 29 29 29 30 31 32 32 32 31 31 30 29 29 29 29 29 29 29 28 28 27 26 26 25 24 24 24 23 22 22 23 23 24 24 25 26 26 26 25 24 23 22 21 20 18 16 14
29 29 28 27 26 25 25 24 23 22 23 23 25 26 27 28 28 29 29 29 29 29 29 29 30 31 32 31 31 31 30 30 30 29 29 28 28 29 28 28 28 28 27 26 26 25 25 24 24 24 24 24 24 25 25 25 26 26 26 25 24 22 21 20 19 17 15 13 12
29 28 27 26 25 24 23 22 22 23 24 26 27 28 28 29 29 30 30 30 29 29 29 29 30 31 31 31 30 30 30 30 30 30 29 28 28 29 29 28 28 27 26 26 25 25 26 26 25 25 25 25 25 26 26 26 26 26 25 24 23 21 19 17 15 13 11 10 12
28 27 26 25 24 24 23 23 23 25 26 27 28 29 29 29 29 30 29 29 29 29 29 29 30 30 30 30 30 31 31 31 31 30 29 29 29 29 29 28 28 27 27 26 26 26 26 26 26 25 25 24 25 26 27 27 26 26 24 22 20 18 16 13 11 9 8 10 12
27 26 26 25 24 24 24 25 26 27 27 28 29 29 29 30 30 29 29 29 29 29 29 29 30 30 30 30 30 31 31 31 31 30 30 29 29 29 29 28 28 28 27 26 26 26 26 27 26 25 25 25 27 28 29 28 26 24 22 18 16 14 12 8 6 5 7 11 12
27 26 25 25 24 24 25 26 27 27 28 28 29 29 29 30 30 29 29 29 29 29 29 30 30 30 30 30 31 31 31 31 31 30 30 30 29 29 29 29 28 28 27 26 25 25 26 26 26 25 25 27 29 30 30 27 24 21 17 13 11 9 7 4 3 5 9 11 11
26 26 26 25 25 25 26 27 27 28 28 28 29 29 29 30 29 29 29 29 29 30 30 31 31 31 31 31 32 32 32 32 31 30 30 30 30 30 30 29 29 28 27 25 24 24 24 25 25 26 27 30 32 31 28 24 20 16 12 8 6 4 2 1 4 7 10 11 11
26 26 26 25 25 25 26 27 27 27 28 28 28 28 28 29 29 29 29 29 30 30 31 31 31 31 32 33 33 34 33 32 31 31 30 30 30 31 31 30 29 28 26 24 22 23 24 25 26 28 31 34 33 29 23 18 13 9 5 3 1 1 1 4 7 10 11 11 13
26 26 25 24 25 25 26 27 27 27 27 28 28 28 28 28 29 29 29 29 30 30 31 32 32 33 34 34 35 34 33 32 32 31 32 32 32 32 31 30 29 27 25 23 22 23 25 27 29 33 35 35 30 22 15 9 4 1 2 1 1 3 5 8 10 12 13 14 16
26 25 24 24 25 25 26 26 26 27 27 27 27 27 27 28 28 28 29 30 30 30 31 32 34 35 35 35 35 34 34 33 33 33 33 34 33 32 31 30 29 27 25 24 25 27 29 32 35 37 35 31 23 14 7 3 3 5 3 2 4 7 10 13 15 16 17 17 17
25 24 24 24 25 25 26 26 26 26 26 26 26 27 27 27 28 28 29 30 31 32 33 34 35 36 37 36 36 35 34 34 34 34 35 35 34 32 31 29 28 27 27 28 30 33 36 38 38 35 28 21 13 6 5 7 7 5 5 8 11 14 16 18 19 20 19 18 17
24 24 24 25 25 25 26 26 26 26 26 26 26 26 26 27 27 28 29 30 32 33 35 36 37 38 38 38 37 36 35 35 35 35 35 34 33 32 30 28 28 28 30 34 37 41 42 39 33 24 16 9 5 7 9 9 8 9 13 16 19 20 20 20 19 19 18 17 18
24 24 25 25 25 25 25 26 26 26 26 26 26 25 26 26 27 29 30 32 33 34 36 37 38 39 39 38 37 36 35 35 35 34 34 33 32 31 29 28 30 33 38 42 45 44 39 30 20 11 7 9 11 12 12 11 13 17 20 22 22 21 19 18 17 16 15 16 20
24 25 25 25 25 25 26 26 26 27 26 26 25 25 25 26 28 29 31 32 34 35 36 38 39 39 39 39 37 35 34 33 33 33 33 33 32 32 31 31 34 41 46 48 45 37 26 16 10 10 13 15 14 13 13 16 20 23 23 23 21 20 19 19 19 19 19 21 23
25 25 25 25 25 26 26 27 27 27 27 26 25 25 25 27 28 30 31 33 34 36 37 38 39 39 39 38 36 34 32 32 32 33 33 34 34 34 33 35 41 47 51 48 38 25 16 13 13 14 15 14 12 13 18 23 26 26 25 23 23 22 22 22 22 22 22 23 25
25 25 25 26 26 26 27 28 28 28 27 26 25 24 25 27 29 30 32 33 35 36 37 38 39 39 38 37 35 32 31 31 31 32 34 35 36 35 36 41 47 51 50 44 30 20 18 17 15 13 12 13 17 23 27 29 29 27 25 24 24 23 23 23 22 22 21 21 22
25 25 26 26 27 28 28 29 29 29 28 26 25 24 25 27 29 30 32 33 35 36 37 37 38 38 37 35 32 30 30 30 31 33 34 36 36 36 40 46 50 50 46 39 27 22 21 18 17 17 21 26 30 33 32 30 27 25 24 24 23 23 23 23 22 22 22 21 20
25 26 26 27 28 28 29 30 30 29 28 26 25 25 26 27 29 30 32 34 35 37 37 37 37 37 35 32 30 29 29 30 32 34 35 36 36 37 42 49 50 47 43 38 32 27 24 24 26 30 35 37 37 35 32 28 26 25 24 24 23 23 23 23 23 24 23 23 22
26 26 27 27 28 29 29 30 30 29 28 26 24 25 26 27 29 30 32 34 35 36 37 36 36 36 34 31 29 28 29 30 32 34 35 36 36 38 44 49 49 44 40 41 38 35 33 35 37 39 39 38 35 33 30 28 27 26 25 25 24 24 24 24 25 25 24 24 23
27 27 28 28 28 29 29 29 29 28 26 25 24 25 26 27 28 30 32 34 36 37 36 35 35 34 33 30 29 29 29 30 31 33 34 35 36 39 43 47 47 43 39 41 41 40 38 37 37 37 36 35 34 32 30 29 27 26 26 26 26 26 26 26 26 25 25 24 24
28 29 29 28 28 28 28 28 28 27 26 25 24 25 26 27 28 30 32 34 36 37 36 34 33 32 32 30 30 29 29 30 30 31 32 34 35 38 42 45 45 42 39 38 39 38 36 34 33 33 32 32 31 30 29 28 27 26 26 26 26 26 27 27 27 27 26 25 24
29 29 29 29 28 28 28 28 27 27 26 25 25 25 26 26 28 30 33 35 37 38 37 34 31 30 30 30 30 30 29 29 29 30 31 32 34 37 41 44 43 41 37 35 36 36 35 33 31 30 29 28 28 28 27 27 26 26 26 26 26 26 26 27 27 28 28 27 25
29 29 29 29 28 28 28 28 28 27 26 25 25 25 26 27 28 31 34 36 38 38 36 33 30 28 28 29 30 29 29 28 29 29 30 31 34 37 41 43 42 39 34 32 32 33 33 32 30 28 27 26 26 26 26 25 25 25 25 25 25 25 25 26 27 28 29 29 27
29 29 29 28 28 28 28 28 28 27 26 24 25 25 26 28 30 32 35 36 37 36 34 32 28 27 27 28 29 28 28 28 28 29 29 31 33 37 40 42 41 38 34 31 30 29 29 28 27 26 25 25 24 24 24 23 23 23 23 23 23 23 24 25 26 28 29 29 29
29 29 28 28 28 28 29 29 28 27 25 24 25 26 28 29 31 33 34 35 35 34 32 30 27 26 27 28 28 27 27 27 28 28 29 30 33 36 38 40 41 38 35 33 30 28 26 24 23 23 22 22 22 21 21 20 20 20 20 20 20 20 22 23 25 26 28 29 29
29 28 28 28 28 28 28 28 28 27 25 25 26 28 29 30 32 33 33 33 33 32 31 29 27 26 27 27 27 26 26 27 28 28 28 29 31 34 37 39 40 38 36 34 33 30 27 24 21 20 20 19 19 18 17 17 16 16 17 17 17 18 19 21 23 25 27 28 28
28 28 28 28 28 28 28 28 27 26 26 26 27 28 30 31 32 32 32 32 32 31 29 27 26 25 25 26 25 25 26 27 28 28 28 28 30 33 36 38 39 38 35 34 34 33 30 26 23 21 20 19 18 17 16 15 15 14 14 14 15 15 17 18 20 23 26 28 28
28 28 28 28 28 28 27 27 26 26 26 27 28 29 30 31 31 31 31 31 31 29 27 25 24 23 23 23 23 24 25 27 28 28 28 28 29 32 35 37 38 37 35 33 34 34 32 30 27 25 24 23 22 21 19 17 16 15 14 14 13 13 14 15 17 20 23 26 28
27 27 27 28 28 28 27 26 26 26 27 27 28 29 29 30 31 30 30 30 29 28 26 24 22 21 21 21 22 23 25 27 28 28 28 27 29 31 33 36 37 37 35 33 33 33 34 33 31 30 28 28 27 26 24 22 20 18 16 15 14 13 13 14 15 17 21 24 27
26 26 27 27 27 27 27 26 26 26 27 27 28 28 29 29 29 29 29 29 29 27 26 23 21 20 20 20 21 23 25 27 28 28 27 27 28 30 32 34 36 36 36 35 33 33 34 34 34 34 33 32 31 29 28 26 24 22 19 17 16 15 14 14 15 16 18 22 25
25 26 26 27 27 27 27 26 26 26 26 27 27 27 28 28 28 28 27 28 28 27 25 23 21 20 19 19 20 22 24 26 27 27 27 27 28 29 30 32 34 35 36 37 34 32 32 33 35 35 35 35 34 32 31 29 27 25 23 21 19 18 17 16 16 16 17 20 23
25 25 26 26 27 27 26 25 25 25 26 26 26 26 26 27 27 27 26 26 26 25 24 22 20 19 18 18 19 21 23 25 26 26 26 26 27 28 29 31 32 34 35 36 36 33 31 31 33 35 36 36 35 34 33 31 30 28 26 25 23 21 21 20 19 18 18 20 22
25 25 26 26 26 26 26 24 24 24 25 25 25 25 25 26 26 26 25 24 24 23 22 20 19 18 17 18 18 20 22 24 24 25 25 26 26 27 28 29 30 31 32 33 35 34 32 30 30 32 34 36 36 35 34 33 32 31 30 28 26 25 24 23 22 22 21 21 22
25 25 25 26 26 26 25 23 23 23 23 24 24 24 24 25 25 24 23 22 22 22 21 19 18 17 16 17 18 19 21 22 23 23 24 24 25 26 27 28 29 29 30 30 32 33 33 32 29 30 32 34 35 36 35 34 34 33 32 31 30 28 27 26 25 24 24 23 23
25 25 25 26 26 25 24 23 22 22 22 22 23 23 23 23 23 22 22 21 21 21 20 18 16 15 15 16 17 19 20 21 21 22 22 23 24 25 26 27 27 28 28 28 29 30 31 31 29 28 29 32 34 35 35 35 35 34 34 33 32 30 29 28 27 27 26 26 26
Wind_Direction
335 334 333 332 331 329 328 327 327 327 327 327 327 328 328 327 327 327 328 329 330 331 332 334 336 337 338 338 336 333 331 331 331 333 333 332 331 330 329 328 326 325 325 325 327 328 328 327 325 323 320 318 316 314 314 315 317 318 319 320 322 325 326 327 325 323 320 316 311
335 333 332 331 329 328 327 326 326 326 326 327 327 328 328 328 329 329 330 331 332 334 335 337 339 338 337 335 332 329 327 327 329 330 330 330 329 328 328 327 327 326 325 325 326 327 326 325 324 321 318 316 315 315 316 319 322 322 322 322 324 325 325 323 320 319 318 315 312
334 333 332 331 329 328 327 326 326 327 327 328 329 330 330 331 332 334 334 335 337 339 340 340 339 337 334 331 328 325 324 325 325 326 326 326 327 327 327 328 327 325 325 325 326 326 325 324 322 319 316 314 315 317 320 325 327 326 324 324 323 323 320 318 316 316 316 316 315
334 333 332 331 330 329 328 328 328 329 330 331 332 333 334 336 338 339 340 341 343 343 342 340 337 334 331 328 325 323 322 322 323 323 323 324 325 326 327 327 326 325 325 325 326 326 325 324 321 318 315 316 317 320 324 327 328 326 324 323 321 319 317 315 315 315 316 316 315
335 334 333 332 332 331 331 331 331 332 333 334 336 338 341 343 345 346 346 346 344 344 343 340 336 332 329 327 325 323 322 321 321 322 322 323 324 325 326 326 325 324 324 325 325 325 325 323 320 318 317 318 320 322 325 327 326 324 322 321 319 317 315 314 314 314 315 314 312
336 335 335 334 334 334 334 334 334 335 337 338 342 345 347 349 351 351 349 346 344 343 341 338 334 331 329 328 326 324 323 322 322 323 323 323 323 324 324 323 323 323 323 324 324 325 324 323 319 317 316 318 319 321 323 323 321 320 319 318 317 315 313 312 312 312 312 311 310
337 337 337 337 337 337 338 338 338 340 342 346 350 352 354 354 354 352 350 347 344 342 339 336 334 332 330 329 328 327 327 327 327 326 325 323 323 322 322 321 321 321 322 322 323 324 324 322 318 316 316 317 317 318 319 319 318 317 318 317 316 313 311 309 308 307 308 308 308
339 339 340 341 341 342 343 343 345 347 351 355 357 358 358 356 354 352 350 347 343 340 338 336 334 333 332 331 331 332 333 333 331 329 327 325 323 321 320 320 320 320 321 322 323 323 321 319 316 315 316 317 317 317 318 319 318 318 318 317 314 311 307 305 302 301 301 303 308
342 343 345 346 347 347 348 350 353 357 0 1 1 1 359 356 353 351 349 346 342 339 338 337 335 335 335 335 336 337 338 336 334 331 329 326 323 321 319 319 319 320 321 322 322 321 318 315 313 313 314 316 317 319 321 321 320 319 318 317 314 309 303 299 296 293 293 301 314
346 348 350 351 352 352 354 357 1 4 5 3 2 0 358 355 353 351 348 344 341 340 339 338 338 338 338 339 340 340 339 338 336 333 330 327 324 322 321 321 321 321 321 321 320 318 315 313 312 312 314 317 319 320 322 321 320 318 318 317 314 307 299 292 286 284 293 313 328
351 354 355 356 356 357 359 2 5 6 6 3 1 359 357 354 353 350 347 344 343 342 342 341 342 342 342 342 342 341 340 339 336 334 331 328 326 324 324 324 323 322 321 319 317 315 313 311 311 311 314 317 319 320 320 319 319 318 319 318 311 302 293 282 274 287 314 334 340
356 358 359 359 359 1 3 5 6 6 4 2 359 357 356 354 352 349 347 346 346 345 345 345 345 345 344 344 345 343 341 339 337 335 332 330 329 328 328 327 325 322 319 316 314 313 311 309 309 309 312 315 317 318 318 318 319 321 320 315 304 295 288 277 282 325 342 351 348
360 1 1 1 2 4 6 6 6 4 2 0 358 357 355 354 352 350 349 348 349 348 348 348 349 348 347 347 347 345 342 340 338 336 334 333 333 332 331 328 324 320 316 313 311 309 307 307 306 307 310 313 315 316 318 320 323 324 320 307 296 289 289 309 339 353 2 5 358
2 2 2 2 4 6 7 6 5 3 1 359 357 357 356 354 353 352 351 352 352 351 351 351 351 351 350 350 348 346 344 342 340 339 338 337 336 335 333 329 323 318 313 309 305 304 304 305 306 307 310 312 315 318 322 325 329 327 313 294 308 56 18 349 357 9 17 17 9
3 3 3 4 6 8 7 6 4 1 360 358 358 358 357 355 354 354 355 355 354 354 353 353 353 353 352 351 350 348 346 345 344 343 342 341 340 339 335 330 323 317 310 305 302 302 304 306 307 309 312 315 319 324 332 339 344 296 193 141 68 20 0 1 15 28 32 26 18
4 4 5 7 8 9 8 6 4 1 359 358 358 359 358 356 356 357 358 358 356 355 354 354 353 353 353 353 351 350 348 348 347 346 345 344 344 342 338 333 325 317 310 306 303 304 305 307 310 314 317 320 327 337 358 51 133 151 146 65 18 12 18 29 40 45 42 34 27
6 6 8 10 10 10 8 6 4 1 360 359 359 359 359 359 360 1 0 359 358 356 354 353 353 354 354 354 353 352 350 350 350 349 348 347 347 345 341 335 327 319 312 309 307 308 310 314 318 321 325 330 341 13 92 124 132 119 69 37 35 40 47 53 55 53 48 42 36
8 9 10 12 11 10 8 6 3 1 0 360 360 1 2 2 4 4 3 1 359 357 355 354 354 355 355 355 354 354 353 352 351 351 351 351 350 348 344 336 328 321 317 314 314 317 320 325 330 335 343 0 51 105 121 121 103 71 56 56 59 63 64 64 61 56 49 41 35
10 11 12 13 12 10 8 5 3 2 1 0 1 3 5 6 6 6 4 2 0 358 356 355 355 356 356 356 356 356 356 355 354 354 354 354 353 352 347 339 330 324 323 324 326 329 334 340 349 9 60 99 116 121 116 98 75 66 67 71 73 74 72 68 62 53 44 37 35
12 13 14 13 12 10 8 6 4 2 1 1 3 5 7 8 8 7 4 2 1 360 358 357 356 356 357 358 359 359 359 358 357 356 357 357 357 355 350 341 332 331 333 337 340 345 354 10 46 93 115 121 121 114 97 80 75 77 80 82 80 77 72 67 61 55 49 44 41
14 15 15 15 13 12 10 8 5 3 1 2 4 7 9 9 8 7 5 3 2 1 360 358 358 358 359 1 1 1 1 360 359 359 359 359 359 357 351 343 338 340 346 351 357 12 40 72 98 114 121 120 110 94 85 84 86 88 88 86 81 76 72 68 63 59 54 49 44
16 17 17 17 15 13 11 8 6 4 2 2 5 8 9 10 8 7 5 4 3 2 0 359 359 0 2 3 3 2 2 1 1 2 2 2 1 358 351 345 345 350 356 3 18 49 82 92 99 104 104 97 90 89 90 92 93 92 89 85 82 78 74 71 67 63 58 53 47
18 19 18 18 16 13 11 8 6 4 3 3 6 8 10 9 8 7 6 5 3 2 1 0 1 3 4 5 5 4 3 1 2 4 6 5 3 358 353 351 353 359 8 20 43 73 90 91 90 88 88 89 91 92 94 95 93 91 87 85 82 79 75 72 68 65 61 57 52
19 19 18 17 14 12 10 7 5 4 3 4 6 8 9 8 8 7 6 5 3 2 1 1 3 5 7 7 7 6 4 3 4 6 8 9 6 0 356 357 359 7 19 36 56 74 85 88 88 88 88 89 91 92 93 92 90 88 85 82 79 76 72 69 66 63 60 57 54
19 19 17 14 12 10 8 6 4 3 4 5 8 9 9 8 7 6 5 4 3 2 1 2 4 7 8 8 9 8 6 5 6 8 10 12 9 5 2 3 4 13 28 42 53 64 74 82 86 87 87 87 88 90 90 89 87 85 81 77 73 69 66 63 60 58 57 55 53
18 17 15 12 10 8 6 5 4 4 5 7 9 10 9 8 7 6 5 3 2 2 1 2 5 8 9 9 9 9 8 7 9 10 13 14 12 9 7 8 10 16 28 40 48 56 64 73 79 83 85 85 86 86 86 85 83 80 76 71 67 63 59 56 53 52 51 51 51
17 15 12 10 8 7 6 5 5 5 6 9 10 10 9 8 7 6 4 3 3 2 2 3 6 9 10 10 11 11 10 10 11 12 14 16 15 13 11 12 15 21 29 39 45 51 57 64 71 77 81 83 83 82 80 78 76 73 69 65 61 57 53 50 46 44 42 43 45
15 13 10 8 7 7 7 6 6 7 8 10 11 11 10 8 7 6 5 4 4 3 3 3 6 9 11 11 12 12 12 12 12 13 15 17 18 16 15 15 19 25 31 38 45 49 53 58 64 70 74 77 77 76 74 71 68 65 62 59 56 53 49 46 42 38 35 33 35
14 11 9 8 7 7 8 8 7 8 9 11 12 12 10 9 8 6 6 5 5 4 3 2 5 9 12 13 14 14 14 14 14 14 17 20 22 21 19 18 22 27 32 37 43 48 52 55 59 62 65 66 66 65 64 62 60 58 56 54 52 50 48 45 42 38 33 28 26
13 11 9 8 8 8 9 9 8 8 10 12 14 13 11 10 8 7 7 6 6 5 3 2 5 9 13 15 15 15 15 15 15 15 18 22 25 25 22 21 25 29 32 34 38 44 49 52 55 57 58 57 57 56 56 56 55 54 53 52 50 50 49 47 45 41 35 28 21
13 11 10 9 9 9 9 9 9 9 11 14 16 14 12 10 9 8 8 8 7 5 4 4 8 12 16 17 17 16 16 16 16 17 20 25 27 28 26 24 27 30 33 33 34 37 41 45 49 52 54 55 55 55 55 55 54 54 53 52 51 51 51 49 47 44 39 32 22
13 11 10 10 10 9 9 9 9 10 13 16 16 14 12 10 9 9 10 10 8 7 6 8 11 15 18 18 18 18 18 17 17 18 22 27 30 30 30 28 28 31 34 34 34 34 36 37 40 44 47 50 52 54 55 56 55 55 54 52 51 50 50 50 49 46 43 37 26
13 12 11 11 10 9 8 8 9 11 13 15 15 13 11 10 10 11 12 12 10 8 8 11 15 18 19 19 18 18 18 18 18 20 24 30 32 33 33 31 29 30 34 36 35 35 36 38 38 39 40 42 45 46 48 48 48 48 49 49 49 49 49 49 49 48 45 41 31
13 12 12 11 10 8 7 8 9 10 12 13 13 12 11 11 11 12 13 12 11 10 12 17 20 21 21 20 18 18 18 18 19 21 26 31 35 36 35 34 32 31 33 37 37 36 36 39 40 40 40 40 40 39 39 38 37 36 37 39 40 42 44 46 47 48 47 44 35
14 13 12 11 9 7 6 7 8 9 10 11 12 11 12 12 13 13 13 13 12 13 16 21 24 25 25 23 21 19 18 19 20 22 26 32 36 37 37 36 34 32 32 35 37 36 35 37 39 40 40 40 40 38 36 35 33 31 30 31 32 35 38 42 45 48 49 46 39
14 13 12 10 8 6 5 6 7 9 10 11 11 11 12 13 14 14 14 14 14 16 19 23 26 27 26 25 23 21 20 20 20 22 25 31 36 38 38 37 36 33 31 33 38 37 33 34 35 37 38 39 39 38 37 35 33 32 30 30 31 33 36 39 43 46 48 47 41
14 13 12 9 7 5 5 6 8 9 10 11 10 10 12 13 14 14 14 15 15 17 20 23 25 26 25 24 24 23 22 21 20 21 24 29 35 38 39 38 37 33 30 30 35 36 33 31 31 33 35 36 37 36 36 35 33 32 31 32 33 34 36 37 39 41 45 46 42
14 13 11 9 7 5 6 7 9 10 10 10 10 11 12 13 14 14 14 15 16 17 20 23 24 24 23 23 23 23 22 21 21 21 24 28 33 37 39 40 38 34 30 29 31 34 34 30 28 29 31 33 34 34 33 33 32 31 30 30 32 33 35 35 36 37 40 42 40
14 13 11 9 7 6 6 8 10 11 10 10 10 11 12 14 14 14 14 15 17 19 21 23 24 22 20 19 19 20 21 21 21 22 23 27 31 35 38 40 39 36 32 29 28 30 32 32 27 25 26 28 30 30 30 30 29 28 28 27 28 29 31 32 33 33 35 36 36
14 13 11 9 7 7 7 9 10 10 10 10 10 10 12 13 14 14 14 15 18 20 23 25 24 22 18 16 16 17 19 20 20 21 23 25 29 33 36 38 38 37 33 28 27 28 29 30 28 24 22 22 24 25 27 27 26 25 24 24 24 25 26 28 28 29 29 30 32
15 13 10 9 8 8 8 8 9 9 10 10 10 10 11 12 13 14 14 16 18 21 24 26 26 23 18 14 13 14 16 18 19 20 21 23 27 30 34 36 36 35 31 28 26 27 28 28 28 25 21 19 19 20 22 23 23 23 22 21 20 21 22 23 23 24 24 25 26